[[{"header":{"parameterUnit":"m.s-1","parameterCategory":2,"la1":30.2991,"la2":30.254,"lo1":-89.0895,"lo2":-89.0444,"dy":0.0017,"dx":0.0017,"nx":28,"ny":28,"refTime":"2024-06-09T09:00:00:Z","depth":"0","parameterNumber":2,"parameterNumberName":"U-component_of_CURRENTS"},"data":[0,0,0,0,0,0,0,0,0,0,0,0,0,0,0,0,0,0,0,0,0,0,0,0,0,0,0,0,0,0,0,0,0,0,0,0,0,0,0,0,0,0,0,0,0,0,0,0,0,0,0,0,0,0,0,0,0,0,-0.236,-0.2361,0,-0.2426,-0.2427,-0.2427,-0.2401,-0.24,-0.2398,-0.2397,-0.2404,-0.2405,-0.2406,0,0,0,0,0,0,0,0,0,0,0,0,0,-0.2247,-0.2249,-0.236,-0.2361,-0.2362,-0.2426,-0.2427,-0.2428,-0.2401,-0.24,-0.2398,-0.2397,-0.2403,-0.2405,-0.2406,0,0,0,0,0,0,0,0,0,0,0,0,0,-0.2301,-0.225,-0.236,-0.2359,-0.236,-0.2426,-0.2427,-0.2428,-0.2402,-0.24,-0.2398,-0.2396,-0.2403,-0.2405,-0.2407,-0.2458,0,0,-0.2413,-0.2414,0,0,0,0,0,0,0,0,-0.2298,-0.2304,-0.2358,-0.2359,-0.236,-0.2406,-0.239,-0.2436,-0.2402,-0.2383,-0.2397,-0.2395,-0.2402,-0.2404,-0.2418,-0.2459,-0.2459,-0.2413,-0.2414,-0.2415,-0.2416,0,0,0,0,0,0,0,-0.2294,-0.2302,-0.2383,-0.2359,-0.2361,-0.2368,-0.2373,-0.2399,-0.2399,-0.2384,-0.2383,-0.2396,-0.2402,-0.2416,-0.2418,-0.2459,-0.2413,-0.2415,-0.2416,-0.2417,-0.2564,-0.2566,0,0,0,0,0,0,-0.2292,-0.2298,-0.2381,-0.2386,-0.2327,-0.2372,-0.2377,-0.2391,-0.24,-0.2401,-0.2397,-0.2394,-0.2413,-0.2415,-0.2418,-0.2514,-0.2415,-0.2417,-0.2418,-0.2561,-0.2564,-0.2567,0,0,0,0,0,0,-0.2289,-0.2299,-0.2379,-0.2345,-0.2356,-0.2376,-0.2392,-0.2393,-0.2398,-0.2411,-0.241,-0.2399,-0.2412,-0.2415,-0.2484,-0.2512,-0.2418,-0.242,-0.2558,-0.2562,-0.2566,-0.2684,0,0,0,0,0,0,-0.2286,-0.2298,-0.2302,-0.2345,-0.2358,-0.2437,-0.2394,-0.2396,-0.2411,-0.2407,-0.2413,-0.2412,-0.2411,-0.2481,-0.2486,-0.2513,-0.2422,-0.2555,-0.256,-0.2564,-0.2676,-0.2691,-0.2704,0,0,0,0,0,-0.2282,-0.231,-0.2302,-0.2312,-0.2366,-0.244,-0.2448,-0.2452,-0.2413,-0.2442,-0.2462,-0.2412,-0.2513,-0.2487,-0.2491,-0.2519,-0.2552,-0.2558,-0.2564,-0.267,-0.2688,-0.2703,0,0,0,0,0,0,-0.2257,-0.2311,-0.2303,-0.2342,-0.2392,-0.2436,-0.2456,-0.2454,-0.249,-0.2474,-0.2468,-0.2473,-0.2537,-0.2522,-0.2492,-0.2576,-0.2515,-0.2522,-0.2594,-0.2611,-0.2624,-0.2628,-0.2423,0,0,0,0,0,-0.2256,-0.2282,-0.2343,-0.2365,-0.2394,-0.2419,-0.2442,-0.2452,-0.2491,-0.2501,-0.2513,-0.2526,-0.2568,-0.2585,-0.2614,-0.2674,-0.2631,-0.2688,-0.2701,-0.2713,-0.2721,-0.2697,-0.2708,-0.2587,-0.2587,-0.2587,0,0,-0.2249,-0.2279,-0.2292,-0.2361,-0.2387,-0.248,-0.2427,-0.2473,-0.2549,-0.2499,-0.2586,-0.2579,-0.2597,-0.2671,-0.2694,-0.266,-0.2728,-0.2721,-0.2731,-0.2732,-0.2704,-0.2715,-0.2726,-0.2591,-0.259,-0.2589,0,0,-0.229,-0.2279,-0.2343,-0.2401,-0.2463,-0.2495,-0.2512,-0.257,-0.2591,-0.2679,-0.2662,-0.2675,-0.2741,-0.2759,-0.2777,-0.2881,-0.2804,-0.2881,-0.2953,-0.2931,-0.294,-0.2947,-0.2914,-0.2918,-0.2885,-0.2885,-0.2885,0,-0.2278,-0.2363,-0.2372,-0.2471,-0.2517,-0.2513,-0.261,-0.2662,-0.2734,-0.2745,-0.272,-0.2776,-0.2782,-0.286,-0.291,-0.2908,-0.2884,-0.2889,-0.2947,-0.2953,-0.2959,-0.2922,-0.2925,-0.2891,-0.2891,-0.289,-0.2889,0,-0.2403,-0.2466,-0.2506,-0.2625,-0.2684,-0.2749,-0.2832,-0.2875,-0.2869,-0.2891,-0.2934,-0.2943,-0.2954,-0.2968,-0.2987,-0.3036,-0.3003,-0.2966,-0.2899,-0.2977,-0.2935,-0.2935,-0.29,-0.2898,-0.2896,-0.2895,0,0,-0.2374,-0.2558,-0.2565,-0.2631,-0.2757,-0.2808,-0.2937,-0.3022,-0.3049,-0.3087,-0.3119,-0.3181,-0.3107,-0.3125,-0.3111,-0.3114,-0.3141,-0.3077,-0.3073,-0.3035,-0.3093,-0.2906,-0.2887,-0.3118,-0.3119,-0.3119,-0.3049,0,-0.2456,-0.2631,-0.2716,-0.2865,-0.2952,-0.3002,-0.3111,-0.3175,-0.319,-0.3226,-0.3202,-0.3223,-0.3195,-0.3177,-0.3184,-0.3172,-0.3147,-0.3163,-0.3031,-0.3027,-0.2843,-0.2883,-0.2754,-0.2666,-0.3048,-0.3048,-0.3048,0,-0.2543,-0.2646,-0.2806,-0.2948,-0.2988,-0.3078,-0.3154,-0.3257,-0.3316,-0.3319,-0.3313,-0.3287,-0.3327,-0.3258,-0.3244,-0.3262,-0.3186,-0.3149,-0.3144,-0.2925,-0.2839,-0.2649,-0.265,-0.2654,-0.3047,-0.3047,-0.3047,0,-0.2468,-0.2685,-0.2787,-0.2849,-0.3039,-0.3089,-0.3164,-0.3244,-0.3291,-0.3351,-0.3345,-0.3372,-0.3351,-0.3318,-0.3225,-0.3255,-0.3161,-0.3174,-0.2917,-0.2903,-0.2741,-0.2709,-0.2714,-0.3104,-0.3105,-0.3105,-0.3105,0,-0.2487,-0.2562,-0.2752,-0.2806,-0.2894,-0.3041,-0.3104,-0.3177,-0.3264,-0.3288,-0.3353,-0.3325,-0.3363,-0.3301,-0.3243,-0.3061,-0.315,-0.2928,-0.287,-0.2777,-0.2751,-0.27,-0.2742,-0.3102,-0.3103,-0.3103,-0.3104,0,-0.2366,-0.2509,-0.2621,-0.281,-0.286,-0.2899,-0.3046,-0.3083,-0.3193,-0.3229,-0.3248,-0.3299,-0.3216,-0.3179,-0.3098,-0.3026,-0.2841,-0.2784,-0.2663,-0.259,-0.2388,-0.244,-0.2358,-0.2291,-0.2562,-0.2557,-0.2552,0,-0.2319,-0.2374,-0.2551,-0.2585,-0.2659,-0.2758,-0.2818,-0.2995,-0.3043,-0.3161,-0.3155,-0.3114,-0.2975,-0.2799,-0.2689,-0.2526,-0.2565,-0.2337,-0.2358,-0.235,-0.2369,-0.2431,-0.2389,-0.221,-0.2203,-0.2198,-0.2193,0,-0.2195,-0.2247,-0.2314,-0.2389,-0.2456,-0.2547,-0.2654,-0.2696,-0.2895,-0.2902,-0.2839,-0.2733,-0.2589,-0.2353,-0.2189,-0.21,-0.2309,-0.2213,-0.2253,-0.2125,-0.2148,-0.2062,-0.2294,-0.2144,-0.2149,-0.2153,-0.2155,-0.2157,-0.2043,-0.2029,-0.2098,-0.2147,-0.222,-0.2269,-0.2261,-0.237,-0.2375,-0.2335,-0.2424,-0.2151,-0.2144,-0.1861,-0.1797,-0.1732,-0.1834,-0.1728,-0.1804,-0.1877,-0.1777,-0.1875,-0.1617,-0.1619,-0.1621,-0.1622,-0.1623,0,-0.1857,-0.1842,-0.1857,-0.1893,-0.1872,-0.2003,-0.209,-0.2035,-0.1927,-0.1866,-0.1721,-0.151,-0.1402,-0.1441,-0.1467,-0.1398,-0.143,-0.1402,-0.1529,-0.1511,-0.1625,-0.1572,-0.1232,-0.1232,-0.1232,-0.1232,-0.1232,-0.1232,-0.175,-0.1669,-0.1672,-0.1538,-0.1554,-0.1477,-0.1477,-0.1397,-0.1311,-0.1017,-0.0794,-0.066,-0.0882,-0.1334,-0.1408,-0.135,-0.1383,-0.1285,-0.136,-0.1524,-0.1564,-0.1602,-0.1563,-0.1227,-0.1227,-0.119,-0.1191,-0.1191]},{"header":{"parameterUnit":"m.s-1","parameterCategory":2,"la1":30.2991,"la2":30.254,"lo1":-89.0895,"lo2":-89.0444,"dy":0.0017,"dx":0.0017,"nx":28,"ny":28,"refTime":"2024-06-09T09:00:00:Z","depth":"0","parameterNumber":3,"parameterNumberName":"V-component_of_CURRENTS"},"data":[0,0,0,0,0,0,0,0,0,0,0,0,0,0,0,0,0,0,0,0,0,0,0,0,0,0,0,0,0,0,0,0,0,0,0,0,0,0,0,0,0,0,0,0,0,0,0,0,0,0,0,0,0,0,0,0,0,0,-0.0162,-0.0161,0,-0.0079,-0.0078,-0.0077,-0.0006,-0.0005,-0.0005,-0.0004,0.0016,0.0016,0.0015,0,0,0,0,0,0,0,0,0,0,0,0,0,-0.0208,-0.0208,-0.0162,-0.0161,-0.016,-0.0079,-0.0078,-0.0076,-0.0006,-0.0005,-0.0005,-0.0004,0.0016,0.0016,0.0015,0,0,0,0,0,0,0,0,0,0,0,0,0,-0.0163,-0.0208,-0.0162,-0.0116,-0.011,-0.0079,-0.0078,-0.0076,-0.0007,-0.0005,-0.0004,-0.0003,0.0016,0.0016,0.0015,-0.0009,0,0,0.0015,0.0015,0,0,0,0,0,0,0,0,-0.0165,-0.0161,-0.0123,-0.0119,-0.0113,-0.0052,-0.0086,-0.0057,-0.0007,-0.0046,-0.0004,-0.0003,-0.0014,-0.0011,0.0003,-0.0008,-0.0007,0.0015,0.0014,0.0014,0.0014,0,0,0,0,0,0,0,-0.0169,-0.0164,-0.0129,-0.0122,-0.0116,-0.008,-0.0073,-0.008,-0.0038,-0.0042,-0.0037,-0.0028,-0.0011,0.0003,0.0004,-0.0007,0.0015,0.0014,0.0014,0.0014,-0.0047,-0.0049,0,0,0,0,0,0,-0.0184,-0.0167,-0.0131,-0.0126,-0.0137,-0.0081,-0.0073,-0.0072,-0.0036,-0.0029,-0.003,-0.0025,0.0003,0.0004,0.0005,-0.0081,0.0014,0.0014,0.0014,-0.0046,-0.0048,-0.0049,0,0,0,0,0,0,-0.0185,-0.0182,-0.0135,-0.0144,-0.0136,-0.0082,-0.0082,-0.0071,-0.0056,-0.0026,-0.002,-0.0024,0.0004,0.0005,-0.0004,-0.0077,0.0014,0.0014,-0.0044,-0.0047,-0.0049,-0.0215,0,0,0,0,0,0,-0.0187,-0.0183,-0.019,-0.0146,-0.0136,-0.0138,-0.0082,-0.0071,-0.0052,-0.0046,-0.002,-0.0016,0.0005,-0.0004,-0.0004,-0.0076,0.0014,-0.0042,-0.0045,-0.0048,-0.0207,-0.0222,-0.0235,0,0,0,0,0,-0.0189,-0.0217,-0.0191,-0.0187,-0.0147,-0.0139,-0.0132,-0.0088,-0.0053,-0.0066,-0.0035,-0.0017,-0.0022,-0.0005,-0.0005,-0.0079,-0.0041,-0.0044,-0.0048,-0.0201,-0.0219,-0.0235,0,0,0,0,0,0,-0.0239,-0.021,-0.0182,-0.0197,-0.0175,-0.0128,-0.0135,-0.0097,-0.0079,-0.0073,-0.0033,-0.0029,-0.0063,-0.0038,-0.002,-0.0099,-0.0031,-0.0034,-0.0147,-0.0164,-0.0178,-0.0227,0.0013,0,0,0,0,0,-0.0254,-0.0267,-0.0227,-0.024,-0.0234,-0.0182,-0.0171,-0.0143,-0.0118,-0.0107,-0.0083,-0.0067,-0.0079,-0.0092,-0.0084,-0.0133,-0.0061,-0.0178,-0.0192,-0.0204,-0.0241,-0.02,-0.0214,-0.006,-0.006,-0.006,0,0,-0.0273,-0.0261,-0.0264,-0.0251,-0.0228,-0.028,-0.0174,-0.0173,-0.0226,-0.0113,-0.0168,-0.011,-0.0095,-0.0145,-0.0161,-0.0137,-0.0193,-0.0208,-0.022,-0.0251,-0.0205,-0.022,-0.0234,-0.0063,-0.0062,-0.0062,0,0,-0.0376,-0.0312,-0.0388,-0.038,-0.0365,-0.0335,-0.0342,-0.0301,-0.0291,-0.0323,-0.0257,-0.0235,-0.0256,-0.0253,-0.0261,-0.0346,-0.0256,-0.0343,-0.0478,-0.0437,-0.045,-0.0461,-0.0319,-0.0316,-0.0366,-0.0366,-0.0366,0,-0.0407,-0.0487,-0.0406,-0.0488,-0.0493,-0.038,-0.0466,-0.0458,-0.0425,-0.0422,-0.0372,-0.0349,-0.0324,-0.0388,-0.0422,-0.0387,-0.0307,-0.0422,-0.0458,-0.0468,-0.0476,-0.0328,-0.0322,-0.0374,-0.0374,-0.0373,-0.0372,0,-0.0596,-0.0641,-0.0678,-0.0744,-0.074,-0.0774,-0.0746,-0.0743,-0.0694,-0.0664,-0.0667,-0.0594,-0.0577,-0.057,-0.054,-0.0594,-0.0492,-0.0468,-0.0423,-0.0502,-0.0339,-0.033,-0.0387,-0.0384,-0.0381,-0.0379,0,0,-0.0705,-0.0798,-0.081,-0.0863,-0.0863,-0.0875,-0.0954,-0.0971,-0.0993,-0.0946,-0.0966,-0.0968,-0.0853,-0.0852,-0.0771,-0.0752,-0.0713,-0.066,-0.0653,-0.0529,-0.0547,-0.0384,-0.0356,-0.0699,-0.07,-0.0701,-0.0383,0,-0.0876,-0.1065,-0.1064,-0.1205,-0.1275,-0.1191,-0.1265,-0.1251,-0.1192,-0.1173,-0.1084,-0.1066,-0.0988,-0.0947,-0.0926,-0.0754,-0.0711,-0.0797,-0.048,-0.0469,-0.0327,-0.035,-0.0263,0.0032,-0.0374,-0.0372,-0.0371,0,-0.1073,-0.1157,-0.1338,-0.1401,-0.1423,-0.1489,-0.1488,-0.1534,-0.1478,-0.143,-0.137,-0.1255,-0.1199,-0.1116,-0.0906,-0.0959,-0.0794,-0.0658,-0.0642,-0.0443,-0.0295,0.0033,0.0065,0.0229,-0.0356,-0.0357,-0.0358,0,-0.117,-0.1335,-0.1468,-0.1494,-0.1568,-0.1618,-0.1634,-0.1601,-0.161,-0.1556,-0.1514,-0.1415,-0.1301,-0.1156,-0.0849,-0.089,-0.0562,-0.0569,-0.0259,-0.0238,-0.0081,-0.0047,0.0124,-0.046,-0.0461,-0.0462,-0.0462,0,-0.1322,-0.142,-0.1522,-0.1584,-0.1703,-0.171,-0.1785,-0.1779,-0.1748,-0.173,-0.163,-0.1542,-0.1315,-0.1076,-0.0867,-0.0483,-0.0559,-0.028,-0.0173,-0.0124,-0.01,0.0118,0.0168,-0.0449,-0.0452,-0.0454,-0.0457,0,-0.1389,-0.1474,-0.1608,-0.1716,-0.1752,-0.1812,-0.1867,-0.1894,-0.1869,-0.1829,-0.1815,-0.1602,-0.1264,-0.0966,-0.0616,-0.0439,0.0013,0.0009,0.0114,0.0222,0.0599,0.0636,0.0931,0.1065,0.0364,0.037,0.0374,0,-0.1437,-0.1531,-0.1672,-0.1729,-0.1777,-0.1869,-0.1917,-0.1943,-0.1945,-0.1832,-0.1796,-0.1479,-0.1196,-0.0579,-0.0182,0.0266,0.0333,0.0551,0.0435,0.0634,0.0754,0.0753,0.084,0.0633,0.0639,0.0644,0.0649,0,-0.1488,-0.1541,-0.1627,-0.1757,-0.1834,-0.1922,-0.1984,-0.2008,-0.1993,-0.1936,-0.1732,-0.1499,-0.0859,-0.0264,0.0326,0.0548,0.0686,0.0671,0.0817,0.0919,0.0986,0.1164,0.048,0.0695,0.069,0.0687,0.0684,0.0683,-0.1476,-0.1533,-0.1645,-0.176,-0.1847,-0.1915,-0.1949,-0.1957,-0.1928,-0.1786,-0.1642,-0.1253,-0.0396,0.0482,0.0724,0.126,0.1143,0.1334,0.1363,0.1343,0.1442,0.0907,0.1257,0.1256,0.1255,0.1254,0.1253,0,-0.1447,-0.1527,-0.1638,-0.1758,-0.1834,-0.1891,-0.1946,-0.1915,-0.181,-0.1662,-0.1451,-0.0573,0.0224,0.0899,0.172,0.1917,0.1898,0.1982,0.1953,0.2007,0.1505,0.1481,0.1966,0.1966,0.1966,0.1965,0.1965,0.1965,-0.143,-0.1516,-0.1592,-0.1705,-0.1783,-0.183,-0.1836,-0.1736,-0.162,-0.1197,-0.0784,-0.0482,0.059,0.1764,0.2396,0.2424,0.2563,0.2556,0.2633,0.2224,0.2162,0.2103,0.209,0.2695,0.2696,0.3116,0.3121,0.3124]}],[{"header":{"parameterUnit":"m.s-1","parameterCategory":2,"la1":30.2991,"la2":30.254,"lo1":-89.0895,"lo2":-89.0444,"dy":0.0017,"dx":0.0017,"nx":28,"ny":28,"refTime":"2024-06-09T09:00:00:Z","depth":"2","parameterNumber":2,"parameterNumberName":"U-component_of_CURRENTS"},"data":[0,0,0,0,0,0,0,0,0,0,0,0,0,0,0,0,0,0,0,0,0,0,0,0,0,0,0,0,0,0,0,0,0,0,0,0,0,0,0,0,0,0,0,0,0,0,0,0,0,0,0,0,0,0,0,0,0,0,-0.222,-0.2221,0,-0.2282,-0.2282,-0.2282,-0.2268,-0.2267,-0.2267,-0.2266,-0.2243,-0.2243,-0.2243,0,0,0,0,0,0,0,0,0,0,0,0,0,-0.2115,-0.2117,-0.222,-0.2221,-0.2222,-0.2281,-0.2282,-0.2283,-0.2269,-0.2267,-0.2266,-0.2265,-0.2243,-0.2243,-0.2243,0,0,0,0,0,0,0,0,0,0,0,0,0,-0.2164,-0.2117,-0.2219,-0.2224,-0.2225,-0.2281,-0.2282,-0.2283,-0.2269,-0.2267,-0.2266,-0.2265,-0.2243,-0.2243,-0.2243,-0.2272,0,0,-0.2244,-0.2244,0,0,0,0,0,0,0,0,-0.2161,-0.2168,-0.2222,-0.2224,-0.2226,-0.2269,-0.2237,-0.2276,-0.2269,-0.2249,-0.2266,-0.2264,-0.2247,-0.2247,-0.2258,-0.2271,-0.227,-0.2244,-0.2244,-0.2245,-0.2245,0,0,0,0,0,0,0,-0.2158,-0.2165,-0.2241,-0.2224,-0.2226,-0.2232,-0.2237,-0.2245,-0.2251,-0.2251,-0.2251,-0.2263,-0.2246,-0.2258,-0.2257,-0.227,-0.2244,-0.2245,-0.2245,-0.2245,-0.2291,-0.2292,0,0,0,0,0,0,-0.2157,-0.2162,-0.2239,-0.2243,-0.2193,-0.2235,-0.2241,-0.2254,-0.2252,-0.2253,-0.2264,-0.2262,-0.2258,-0.2257,-0.2256,-0.228,-0.2245,-0.2245,-0.2245,-0.229,-0.2292,-0.2293,0,0,0,0,0,0,-0.2155,-0.2163,-0.2237,-0.2206,-0.2216,-0.2239,-0.2253,-0.2256,-0.2266,-0.2264,-0.2261,-0.2272,-0.2257,-0.2256,-0.2257,-0.2279,-0.2245,-0.2245,-0.2289,-0.2291,-0.2292,-0.2334,0,0,0,0,0,0,-0.2151,-0.2162,-0.2168,-0.2206,-0.2218,-0.2277,-0.2255,-0.2258,-0.2278,-0.2275,-0.2271,-0.2267,-0.2256,-0.2257,-0.2258,-0.2279,-0.2246,-0.2288,-0.229,-0.2292,-0.2331,-0.2337,-0.2341,0,0,0,0,0,-0.2147,-0.2165,-0.2168,-0.2178,-0.2227,-0.2278,-0.2285,-0.2294,-0.2279,-0.2295,-0.228,-0.2267,-0.227,-0.2258,-0.2259,-0.228,-0.2287,-0.2289,-0.2291,-0.2329,-0.2335,-0.2341,0,0,0,0,0,0,-0.212,-0.2167,-0.2171,-0.22,-0.2239,-0.2277,-0.2289,-0.23,-0.2304,-0.229,-0.2278,-0.2275,-0.2281,-0.228,-0.2267,-0.23,-0.2278,-0.2281,-0.2306,-0.2312,-0.2317,-0.2326,-0.2246,0,0,0,0,0,-0.2119,-0.214,-0.2191,-0.2211,-0.223,-0.226,-0.2279,-0.2291,-0.2304,-0.2305,-0.2306,-0.23,-0.2296,-0.2301,-0.2297,-0.2322,-0.2305,-0.2337,-0.2342,-0.2346,-0.2355,-0.2362,-0.2369,-0.23,-0.23,-0.23,0,0,-0.2113,-0.214,-0.2152,-0.2206,-0.2228,-0.2266,-0.2267,-0.2301,-0.2327,-0.2302,-0.2323,-0.2313,-0.2303,-0.232,-0.2325,-0.2321,-0.2351,-0.2349,-0.2353,-0.2359,-0.2365,-0.2372,-0.2378,-0.2302,-0.2302,-0.2301,0,0,-0.2108,-0.2137,-0.2151,-0.2192,-0.2238,-0.2267,-0.228,-0.2327,-0.234,-0.237,-0.2346,-0.2351,-0.2363,-0.2362,-0.2359,-0.2395,-0.2369,-0.2397,-0.2441,-0.2449,-0.2454,-0.2459,-0.2416,-0.2417,-0.241,-0.2411,-0.2411,0,-0.2095,-0.2123,-0.2164,-0.2195,-0.2231,-0.2269,-0.2303,-0.2332,-0.2373,-0.2392,-0.2378,-0.2396,-0.2384,-0.2402,-0.2412,-0.2407,-0.2391,-0.2416,-0.2455,-0.246,-0.2464,-0.2419,-0.2419,-0.2413,-0.2413,-0.2412,-0.2412,0,-0.2098,-0.2133,-0.2148,-0.2199,-0.2249,-0.2285,-0.2345,-0.2383,-0.2404,-0.2433,-0.246,-0.2449,-0.2466,-0.2463,-0.2448,-0.2478,-0.2447,-0.245,-0.2438,-0.2473,-0.2423,-0.2422,-0.2416,-0.2415,-0.2415,-0.2414,0,0,-0.2035,-0.2129,-0.2133,-0.2173,-0.2256,-0.2302,-0.2359,-0.2427,-0.2465,-0.2495,-0.2538,-0.2536,-0.254,-0.2538,-0.2524,-0.2533,-0.2533,-0.2513,-0.2512,-0.2466,-0.2516,-0.2432,-0.2423,-0.2549,-0.255,-0.255,-0.2457,0,-0.2018,-0.2081,-0.2133,-0.2205,-0.2255,-0.2329,-0.2386,-0.2457,-0.2506,-0.2559,-0.2564,-0.2585,-0.2567,-0.2571,-0.2583,-0.2545,-0.254,-0.2556,-0.2492,-0.2489,-0.2409,-0.2423,-0.2233,-0.213,-0.2456,-0.2456,-0.2456,0,-0.1996,-0.2052,-0.2121,-0.2237,-0.2263,-0.2312,-0.2428,-0.2477,-0.2564,-0.26,-0.264,-0.2649,-0.2659,-0.2639,-0.2607,-0.262,-0.2577,-0.2543,-0.2539,-0.2451,-0.2407,-0.2154,-0.2116,-0.2455,-0.2455,-0.2455,-0.2455,0,-0.1948,-0.2043,-0.2101,-0.2142,-0.2274,-0.2321,-0.238,-0.2488,-0.2532,-0.2619,-0.2654,-0.2685,-0.2676,-0.2661,-0.2594,-0.261,-0.2539,-0.2551,-0.2427,-0.2418,-0.2238,-0.2212,-0.2532,-0.2532,-0.2532,-0.2532,-0.2532,0,-0.1927,-0.1973,-0.2086,-0.2126,-0.219,-0.2299,-0.2367,-0.2439,-0.2535,-0.2578,-0.2656,-0.2669,-0.2685,-0.2651,-0.2606,-0.2496,-0.2545,-0.2428,-0.2399,-0.2243,-0.222,-0.2499,-0.2496,-0.2529,-0.2529,-0.253,-0.2531,0,-0.1887,-0.1952,-0.2016,-0.2139,-0.2173,-0.2219,-0.2329,-0.2377,-0.2484,-0.2543,-0.2565,-0.264,-0.2589,-0.257,-0.2512,-0.2476,-0.2401,-0.2346,-0.2136,-0.2085,-0.2271,-0.2272,-0.2217,-0.2214,-0.2211,-0.2208,-0.2206,0,-0.1874,-0.1909,-0.2001,-0.2012,-0.2063,-0.2141,-0.2188,-0.2321,-0.2371,-0.25,-0.2507,-0.2513,-0.2466,-0.2352,-0.2279,-0.2172,-0.2267,-0.197,-0.1984,-0.2267,-0.2244,-0.2249,-0.2254,-0.1738,-0.1732,-0.1727,-0.1723,0,-0.184,-0.1862,-0.1905,-0.193,-0.1967,-0.2013,-0.2091,-0.212,-0.2269,-0.231,-0.2337,-0.2313,-0.2247,-0.2054,-0.1948,-0.1873,-0.1984,-0.1872,-0.2214,-0.1864,-0.1812,-0.1791,-0.1811,-0.1682,-0.1686,-0.1689,-0.1691,-0.1693,-0.1774,-0.1777,-0.1803,-0.1816,-0.1845,-0.1845,-0.1823,-0.1913,-0.1931,-0.1953,-0.2077,-0.1976,-0.1973,-0.1685,-0.1599,-0.1546,-0.1687,-0.1632,-0.1647,-0.1667,-0.1646,-0.1594,-0.1415,-0.1417,-0.1419,-0.1421,-0.1423,0,-0.1671,-0.1676,-0.1683,-0.1665,-0.163,-0.17,-0.1721,-0.1666,-0.1612,-0.1667,-0.1664,-0.1485,-0.1341,-0.1339,-0.1192,-0.1193,-0.1191,-0.1152,-0.1151,-0.1191,-0.1227,-0.1186,-0.0831,-0.083,-0.0828,-0.0827,0,0,-0.1608,-0.1564,-0.1568,-0.1448,-0.1433,-0.134,-0.1307,-0.125,-0.124,-0.1135,-0.1093,-0.1202,-0.1253,-0.1026,-0.0995,-0.0888,-0.1026,-0.0835,-0.1301,-0.1334,-0.1368,-0.1485,-0.1463,0,0,0,0,0]},{"header":{"parameterUnit":"m.s-1","parameterCategory":2,"la1":30.2991,"la2":30.254,"lo1":-89.0895,"lo2":-89.0444,"dy":0.0017,"dx":0.0017,"nx":28,"ny":28,"refTime":"2024-06-09T09:00:00:Z","depth":"2","parameterNumber":3,"parameterNumberName":"V-component_of_CURRENTS"},"data":[0,0,0,0,0,0,0,0,0,0,0,0,0,0,0,0,0,0,0,0,0,0,0,0,0,0,0,0,0,0,0,0,0,0,0,0,0,0,0,0,0,0,0,0,0,0,0,0,0,0,0,0,0,0,0,0,0,0,-0.0115,-0.0114,0,-0.0038,-0.0037,-0.0036,0.0024,0.0025,0.0025,0.0026,0.0157,0.016,0.0163,0,0,0,0,0,0,0,0,0,0,0,0,0,-0.016,-0.016,-0.0115,-0.0114,-0.0113,-0.0038,-0.0037,-0.0036,0.0024,0.0025,0.0025,0.0026,0.0156,0.0159,0.0163,0,0,0,0,0,0,0,0,0,0,0,0,0,-0.0118,-0.016,-0.0115,-0.0074,-0.007,-0.0038,-0.0037,-0.0036,0.0024,0.0025,0.0026,0.0026,0.0155,0.0159,0.0163,0.0174,0,0,0.0177,0.0179,0,0,0,0,0,0,0,0,-0.012,-0.0116,-0.0081,-0.0077,-0.0072,-0.0016,-0.0005,0.0037,0.0024,-0.0011,0.0026,0.0027,0.0103,0.0112,0.0124,0.018,0.0186,0.0177,0.018,0.0182,0.0183,0,0,0,0,0,0,0,-0.0123,-0.0119,-0.0084,-0.008,-0.0075,-0.0043,-0.0036,0.0003,0.0042,-0.0008,-0.0004,0.0004,0.0106,0.012,0.0128,0.0188,0.0177,0.0181,0.0184,0.0186,0.029,0.029,0,0,0,0,0,0,-0.0137,-0.0122,-0.0086,-0.0082,-0.0095,-0.0043,-0.0036,-0.0034,0.004,0.0052,0.0003,0.0007,0.0112,0.0123,0.0133,0.0169,0.0182,0.0186,0.0189,0.0289,0.029,0.029,0,0,0,0,0,0,-0.0138,-0.0135,-0.0089,-0.01,-0.0092,-0.0044,-0.0042,-0.0033,-0.0019,0.0048,0.0061,0.0009,0.0113,0.0127,0.0164,0.0174,0.0188,0.0192,0.0289,0.0289,0.029,0.0229,0,0,0,0,0,0,-0.014,-0.0136,-0.0142,-0.0101,-0.0092,-0.0079,-0.0043,-0.0032,-0.0015,-0.001,0.0057,0.007,0.0115,0.0157,0.0168,0.018,0.0196,0.0289,0.0289,0.029,0.0231,0.0227,0.0224,0,0,0,0,0,-0.0142,-0.0158,-0.0143,-0.0139,-0.0101,-0.008,-0.0073,-0.0034,-0.0016,-0.0017,0.003,0.0068,0.0167,0.016,0.0173,0.0187,0.0289,0.0289,0.029,0.0233,0.0228,0.0224,0,0,0,0,0,0,-0.018,-0.0152,-0.0135,-0.0141,-0.0115,-0.007,-0.0068,-0.0042,-0.0007,-0.0002,0.0063,0.0079,0.0115,0.0156,0.0147,0.0218,0.0237,0.024,0.0189,0.0185,0.0182,0.0179,0.0199,0,0,0,0,0,-0.0192,-0.0197,-0.0161,-0.0165,-0.0157,-0.0114,-0.0101,-0.0077,-0.004,-0.0023,0.0026,0.008,0.0126,0.0157,0.0198,0.0235,0.0275,0.0254,0.0251,0.0248,0.0254,0.0311,0.0313,0.029,0.029,0.029,0,0,-0.0207,-0.0193,-0.0194,-0.0174,-0.0151,-0.0141,-0.0105,-0.0094,-0.0075,-0.0015,0.002,0.0062,0.013,0.0169,0.0191,0.0207,0.0274,0.0248,0.0244,0.0254,0.0311,0.0314,0.0316,0.029,0.029,0.029,0,0,-0.0237,-0.0229,-0.0239,-0.0225,-0.02,-0.0171,-0.0171,-0.013,-0.0103,-0.0072,-0.0019,0.0028,0.0094,0.0151,0.0188,0.0191,0.0245,0.0203,0.0195,0.0248,0.0251,0.0253,0.0299,0.0306,0.0211,0.0211,0.0211,0,-0.0256,-0.0264,-0.0238,-0.0242,-0.0236,-0.0187,-0.0194,-0.0157,-0.0106,-0.008,-0.0069,0.0041,0.0091,0.0163,0.0164,0.0185,0.0217,0.0203,0.0243,0.0247,0.0251,0.0297,0.0305,0.0208,0.0208,0.0209,0.0209,0,-0.0281,-0.0295,-0.0303,-0.0289,-0.0277,-0.0281,-0.0231,-0.0205,-0.017,-0.0124,-0.0062,0.0007,0.0075,0.0101,0.0135,0.0193,0.0207,0.0222,0.0251,0.0249,0.0298,0.0308,0.0204,0.0205,0.0206,0.0207,0,0,-0.0303,-0.032,-0.0322,-0.0343,-0.0309,-0.031,-0.0271,-0.0226,-0.0198,-0.0136,-0.0089,-0.0005,0.0034,0.0078,0.0134,0.019,0.0238,0.0213,0.0217,0.0251,0.035,0.0368,0.0381,0.0255,0.0257,0.0258,0.0369,0,-0.0331,-0.0374,-0.0358,-0.0392,-0.0414,-0.0365,-0.0334,-0.0282,-0.0224,-0.0164,-0.0069,-0.0012,0.0028,0.0056,0.0119,0.0213,0.0264,0.0206,0.0353,0.0357,0.0369,0.0393,0.037,0.0468,0.038,0.0381,0.0383,0,-0.0349,-0.0387,-0.0435,-0.0465,-0.0466,-0.0468,-0.0424,-0.0393,-0.0281,-0.0231,-0.0144,-0.0066,0.0042,0.0061,0.0226,0.0185,0.0256,0.0327,0.0333,0.0382,0.0395,0.0459,0.0491,0.04,0.0399,0.0398,0.0396,0,-0.0392,-0.0437,-0.049,-0.05,-0.051,-0.0515,-0.0506,-0.0418,-0.039,-0.0274,-0.0229,-0.0091,-0.0017,0.0097,0.0247,0.0234,0.0423,0.0425,0.051,0.0512,0.054,0.0541,0.0525,0.0525,0.0524,0.0524,0.0524,0,-0.0432,-0.0477,-0.0526,-0.0562,-0.061,-0.059,-0.0601,-0.0548,-0.0471,-0.0424,-0.0283,-0.0191,-0.0006,0.0133,0.0246,0.0419,0.0423,0.0521,0.0549,0.0517,0.0515,0.0494,0.0489,0.0528,0.0527,0.0526,0.0526,0,-0.0475,-0.0499,-0.0575,-0.0624,-0.0639,-0.0678,-0.069,-0.0688,-0.0594,-0.0525,-0.0489,-0.0263,-0.0062,0.0115,0.033,0.0424,0.0578,0.0628,0.0575,0.0596,0.0629,0.0619,0.0743,0.0744,0.0746,0.0747,0.0748,0,-0.0503,-0.055,-0.0637,-0.0684,-0.0718,-0.0771,-0.0796,-0.0752,-0.074,-0.0552,-0.0517,-0.0289,-0.0079,0.0249,0.0439,0.0646,0.063,0.0723,0.0699,0.064,0.0655,0.0643,0.0632,0.071,0.0711,0.0711,0.0712,0,-0.0569,-0.0597,-0.0661,-0.0759,-0.0823,-0.0888,-0.0922,-0.093,-0.0843,-0.0719,-0.0483,-0.0283,0.0054,0.0341,0.0573,0.0675,0.069,0.074,0.0717,0.065,0.0616,0.0628,0.0617,0.0717,0.0716,0.0716,0.0715,0.0715,-0.0609,-0.0668,-0.0748,-0.0834,-0.0906,-0.0981,-0.1014,-0.1009,-0.0938,-0.0716,-0.0485,-0.0138,0.0102,0.0489,0.0651,0.0771,0.0767,0.0794,0.079,0.0785,0.0753,0.0723,0.0837,0.0837,0.0837,0.0838,0.0838,0,-0.0659,-0.0722,-0.0816,-0.0915,-0.0992,-0.1018,-0.1068,-0.1059,-0.0961,-0.067,-0.0373,-0.0027,0.0277,0.0496,0.0716,0.0852,0.0822,0.0847,0.0792,0.0787,0.0783,0.0747,0.0832,0.0833,0.0833,0.0833,0,0,-0.0688,-0.0777,-0.0827,-0.0956,-0.1022,-0.1086,-0.1106,-0.106,-0.0886,-0.0563,-0.0265,0.007,0.0336,0.0477,0.0637,0.0759,0.0733,0.0751,0.0742,0.0654,0.0648,0.0738,0.0677,0,0,0,0,0]}],[{"header":{"parameterUnit":"m.s-1","parameterCategory":2,"la1":30.2991,"la2":30.254,"lo1":-89.0895,"lo2":-89.0444,"dy":0.0017,"dx":0.0017,"nx":28,"ny":28,"refTime":"2024-06-09T09:00:00:Z","depth":"4","parameterNumber":2,"parameterNumberName":"U-component_of_CURRENTS"},"data":[0,0,0,0,0,0,0,0,0,0,0,0,0,0,0,0,0,0,0,0,0,0,0,0,0,0,0,0,0,0,0,0,0,0,0,0,0,0,0,0,0,0,0,0,0,0,0,0,0,0,0,0,0,0,0,0,0,0,-0.1583,-0.1584,0,-0.1671,-0.1672,-0.1673,-0.1721,-0.1722,-0.1722,-0.1722,-0.1771,-0.1772,-0.1773,0,0,0,0,0,0,0,0,0,0,0,0,0,-0.1475,-0.1477,-0.1583,-0.1584,-0.1585,-0.1671,-0.1672,-0.1674,-0.1721,-0.1722,-0.1722,-0.1722,-0.1771,-0.1772,-0.1773,0,0,0,0,0,0,0,0,0,0,0,0,0,-0.1538,-0.1477,-0.1583,-0.162,-0.1624,-0.1671,-0.1672,-0.1674,-0.1721,-0.1722,-0.1722,-0.1722,-0.177,-0.1772,-0.1774,-0.1779,0,0,-0.1779,-0.178,0,0,0,0,0,0,0,0,-0.1534,-0.1542,-0.1613,-0.1618,-0.1622,-0.1686,-0.1653,-0.1707,-0.1721,-0.1684,-0.1722,-0.1722,-0.1739,-0.1744,-0.1759,-0.1781,-0.1784,-0.1779,-0.178,-0.1781,-0.1781,0,0,0,0,0,0,0,-0.153,-0.1539,-0.1617,-0.1615,-0.162,-0.1639,-0.1648,-0.1664,-0.1708,-0.1687,-0.1691,-0.1702,-0.1741,-0.1758,-0.1761,-0.1784,-0.1779,-0.1781,-0.1782,-0.1782,-0.1866,-0.1867,0,0,0,0,0,0,-0.1519,-0.1534,-0.1615,-0.162,-0.1579,-0.1641,-0.1651,-0.1665,-0.1709,-0.1716,-0.1701,-0.1704,-0.1754,-0.1759,-0.1763,-0.1825,-0.1781,-0.1782,-0.1783,-0.1865,-0.1866,-0.1868,0,0,0,0,0,0,-0.1517,-0.1526,-0.1611,-0.1579,-0.1592,-0.1642,-0.1658,-0.1667,-0.1711,-0.172,-0.1727,-0.174,-0.1755,-0.176,-0.1801,-0.1825,-0.1783,-0.1785,-0.1864,-0.1865,-0.1867,-0.1914,0,0,0,0,0,0,-0.1513,-0.1524,-0.1546,-0.1579,-0.1593,-0.1657,-0.1658,-0.1668,-0.1716,-0.172,-0.1755,-0.1758,-0.1755,-0.1799,-0.1803,-0.1826,-0.1786,-0.1862,-0.1864,-0.1867,-0.1911,-0.1917,-0.1923,0,0,0,0,0,-0.1509,-0.1533,-0.1546,-0.1557,-0.1616,-0.1658,-0.1668,-0.1703,-0.1718,-0.1744,-0.1767,-0.1759,-0.1816,-0.1802,-0.1806,-0.183,-0.1861,-0.1864,-0.1866,-0.1909,-0.1916,-0.1923,0,0,0,0,0,0,-0.15,-0.1541,-0.1556,-0.1592,-0.1631,-0.1667,-0.1696,-0.1721,-0.1763,-0.1771,-0.1779,-0.1784,-0.1825,-0.1825,-0.1809,-0.1861,-0.1835,-0.1839,-0.1866,-0.1873,-0.1879,-0.1866,-0.1788,0,0,0,0,0,-0.1506,-0.1535,-0.1574,-0.1607,-0.1626,-0.1667,-0.1695,-0.172,-0.1753,-0.1774,-0.18,-0.182,-0.1835,-0.1853,-0.1866,-0.1902,-0.1884,-0.1918,-0.1924,-0.1929,-0.1922,-0.1924,-0.1929,-0.1877,-0.1877,-0.1876,0,0,-0.1513,-0.1538,-0.1558,-0.1607,-0.1638,-0.167,-0.1685,-0.1733,-0.1765,-0.177,-0.1829,-0.1844,-0.1849,-0.1884,-0.1903,-0.1892,-0.1936,-0.1932,-0.1937,-0.1927,-0.1927,-0.1932,-0.1936,-0.1878,-0.1878,-0.1878,0,0,-0.1522,-0.1563,-0.1582,-0.1616,-0.1666,-0.1693,-0.1713,-0.1767,-0.1799,-0.1852,-0.1858,-0.1889,-0.1928,-0.1934,-0.1939,-0.1985,-0.1964,-0.1996,-0.2021,-0.2023,-0.2027,-0.203,-0.2016,-0.2018,-0.2002,-0.2003,-0.2003,0,-0.1529,-0.1557,-0.1597,-0.1621,-0.1656,-0.1705,-0.1737,-0.1774,-0.1838,-0.1865,-0.1876,-0.1934,-0.1945,-0.1972,-0.199,-0.1997,-0.1991,-0.1994,-0.2029,-0.2032,-0.2035,-0.2019,-0.202,-0.2005,-0.2005,-0.2005,-0.2004,0,-0.1536,-0.1576,-0.1593,-0.1639,-0.1684,-0.1723,-0.1776,-0.1827,-0.1874,-0.1904,-0.1959,-0.1979,-0.201,-0.2023,-0.2023,-0.2051,-0.2038,-0.2033,-0.2009,-0.2042,-0.2025,-0.2025,-0.2009,-0.2008,-0.2007,-0.2007,0,0,-0.1504,-0.1582,-0.159,-0.1625,-0.1701,-0.1738,-0.1799,-0.1862,-0.1907,-0.1959,-0.2008,-0.2039,-0.2056,-0.2062,-0.2071,-0.2078,-0.2095,-0.207,-0.2069,-0.205,-0.2092,-0.1957,-0.1944,-0.2101,-0.2102,-0.2102,-0.2073,0,-0.1499,-0.1547,-0.1592,-0.1659,-0.1694,-0.1768,-0.1825,-0.1892,-0.1949,-0.2009,-0.203,-0.2074,-0.2068,-0.2095,-0.21,-0.21,-0.2098,-0.2102,-0.2066,-0.2065,-0.1936,-0.194,-0.2103,-0.2073,-0.2073,-0.2073,-0.2073,0,-0.148,-0.1522,-0.158,-0.1683,-0.1707,-0.1756,-0.1866,-0.1919,-0.2001,-0.2047,-0.2087,-0.2112,-0.2137,-0.2127,-0.2124,-0.2131,-0.2112,-0.2102,-0.2101,-0.1954,-0.1929,-0.2032,-0.2072,-0.2072,-0.2072,-0.2073,-0.2073,0,-0.143,-0.1516,-0.1567,-0.16,-0.1716,-0.1767,-0.1829,-0.1928,-0.1975,-0.2065,-0.2105,-0.2142,-0.216,-0.2151,-0.213,-0.2139,-0.211,-0.2118,-0.197,-0.1961,-0.2072,-0.2069,-0.21,-0.21,-0.21,-0.21,-0.21,0,-0.1397,-0.1445,-0.1552,-0.158,-0.1655,-0.1746,-0.1824,-0.19,-0.1988,-0.2017,-0.211,-0.2124,-0.2169,-0.216,-0.2137,-0.2037,-0.211,-0.196,-0.1939,-0.2094,-0.2093,-0.2072,-0.2069,-0.2099,-0.2099,-0.21,-0.21,0,-0.1335,-0.1406,-0.1471,-0.1591,-0.1632,-0.1683,-0.1802,-0.1844,-0.1952,-0.199,-0.2016,-0.211,-0.2094,-0.2108,-0.2089,-0.2023,-0.1963,-0.1908,-0.2061,-0.2052,-0.1815,-0.1815,-0.1745,-0.174,-0.1735,-0.1732,-0.1729,0,-0.1307,-0.1332,-0.1455,-0.1489,-0.1546,-0.163,-0.168,-0.1805,-0.1831,-0.1945,-0.1935,-0.1984,-0.2015,-0.188,-0.1921,-0.1859,-0.1836,-0.1804,-0.1815,-0.1788,-0.1777,-0.1784,-0.179,-0.1722,-0.1721,-0.1719,-0.1718,0,-0.1243,-0.1294,-0.1342,-0.1404,-0.1464,-0.1516,-0.1583,-0.1585,-0.1696,-0.1824,-0.18,-0.1799,-0.1778,-0.1769,-0.1731,-0.169,-0.183,-0.1758,-0.1768,-0.1777,-0.176,-0.1754,-0.1765,-0.1703,-0.1705,-0.1707,-0.1708,0,-0.1188,-0.12,-0.1253,-0.1297,-0.1364,-0.1356,-0.1414,-0.143,-0.1476,-0.1602,-0.1582,-0.1646,-0.1735,-0.1678,-0.164,-0.1593,-0.1575,-0.1535,-0.1556,-0.1573,-0.1531,-0.1484,-0.1309,0,0,0,0,0,-0.1119,-0.1109,-0.1138,-0.1169,-0.1225,-0.1254,-0.1327,-0.1382,-0.1487,-0.1421,-0.1495,-0.1469,-0.1444,-0.1496,-0.1407,-0.1553,-0.1571,-0.1445,-0.1533,-0.1619,-0.1637,-0.1604,0,0,0,0,0,0,-0.107,-0.1089,-0.109,-0.104,-0.1037,-0.1071,-0.1103,-0.1175,-0.1148,-0.1274,-0.1267,-0.1387,-0.1382,-0.1465,-0.1382,-0.1391,-0.1415,-0.1502,-0.1498,-0.161,-0.1625,-0.1639,-0.1612,0,0,0,0,0]},{"header":{"parameterUnit":"m.s-1","parameterCategory":2,"la1":30.2991,"la2":30.254,"lo1":-89.0895,"lo2":-89.0444,"dy":0.0017,"dx":0.0017,"nx":28,"ny":28,"refTime":"2024-06-09T09:00:00:Z","depth":"4","parameterNumber":3,"parameterNumberName":"V-component_of_CURRENTS"},"data":[0,0,0,0,0,0,0,0,0,0,0,0,0,0,0,0,0,0,0,0,0,0,0,0,0,0,0,0,0,0,0,0,0,0,0,0,0,0,0,0,0,0,0,0,0,0,0,0,0,0,0,0,0,0,0,0,0,0,-0.0072,-0.0071,0,-0.0018,-0.0017,-0.0017,0.0025,0.0025,0.0026,0.0026,0.0115,0.0117,0.0119,0,0,0,0,0,0,0,0,0,0,0,0,0,-0.0105,-0.0104,-0.0072,-0.0071,-0.0071,-0.0018,-0.0017,-0.0017,0.0025,0.0025,0.0026,0.0026,0.0115,0.0117,0.0119,0,0,0,0,0,0,0,0,0,0,0,0,0,-0.0074,-0.0104,-0.0072,-0.0044,-0.0041,-0.0018,-0.0017,-0.0016,0.0025,0.0025,0.0026,0.0026,0.0114,0.0117,0.012,0.0128,0,0,0.0129,0.013,0,0,0,0,0,0,0,0,-0.0076,-0.0073,-0.0049,-0.0046,-0.0043,-0.0003,0.0004,0.0034,0.0025,0.0,0.0026,0.0027,0.0078,0.0084,0.0093,0.0132,0.0136,0.0129,0.0131,0.0133,0.0133,0,0,0,0,0,0,0,-0.0078,-0.0075,-0.005,-0.0048,-0.0044,-0.0022,-0.0018,0.001,0.0036,0.0002,0.0005,0.0011,0.008,0.009,0.0096,0.0137,0.0129,0.0132,0.0134,0.0135,0.0213,0.0213,0,0,0,0,0,0,-0.0088,-0.0077,-0.0052,-0.0049,-0.0059,-0.0022,-0.0017,-0.0016,0.0035,0.0043,0.001,0.0012,0.0085,0.0092,0.0099,0.0138,0.0133,0.0135,0.0137,0.0213,0.0213,0.0213,0,0,0,0,0,0,-0.0089,-0.0087,-0.0054,-0.0062,-0.0056,-0.0023,-0.0021,-0.0015,-0.0004,0.0041,0.005,0.0015,0.0085,0.0095,0.0126,0.0141,0.0137,0.014,0.0213,0.0213,0.0213,0.0199,0,0,0,0,0,0,-0.009,-0.0087,-0.0092,-0.0063,-0.0056,-0.0044,-0.0022,-0.0015,-0.0002,0.0001,0.0048,0.0057,0.0087,0.0121,0.0129,0.0145,0.0142,0.0212,0.0213,0.0213,0.0199,0.0199,0.0198,0,0,0,0,0,-0.0092,-0.0099,-0.0093,-0.009,-0.0063,-0.0044,-0.0039,-0.0012,-0.0003,-0.0,0.0033,0.0055,0.013,0.0123,0.0133,0.015,0.0212,0.0213,0.0213,0.0199,0.0199,0.0198,0,0,0,0,0,0,-0.0114,-0.0095,-0.0087,-0.0088,-0.007,-0.0037,-0.0034,-0.0017,0.001,0.0013,0.0056,0.0067,0.0099,0.0123,0.0115,0.0173,0.0175,0.0178,0.0162,0.0161,0.0161,0.0161,0.0145,0,0,0,0,0,-0.0123,-0.0126,-0.01,-0.0102,-0.0096,-0.0067,-0.0057,-0.0041,-0.0012,-0.0,0.0035,0.0072,0.0108,0.0132,0.016,0.0192,0.0217,0.0209,0.0209,0.0208,0.0214,0.0268,0.0273,0.0215,0.0215,0.0215,0,0,-0.0134,-0.0123,-0.0125,-0.0108,-0.0093,-0.0081,-0.006,-0.0049,-0.0031,0.0005,0.0037,0.0067,0.0113,0.0149,0.0166,0.0173,0.0234,0.0209,0.0208,0.0215,0.0269,0.0275,0.028,0.0216,0.0216,0.0215,0,0,-0.015,-0.0146,-0.015,-0.0138,-0.0119,-0.0098,-0.0098,-0.0066,-0.0045,-0.0017,0.0019,0.0059,0.0105,0.0152,0.018,0.0194,0.0224,0.0199,0.0209,0.0261,0.0266,0.0272,0.0295,0.0302,0.0207,0.0207,0.0207,0,-0.0163,-0.0167,-0.0148,-0.0145,-0.0141,-0.0108,-0.0109,-0.0078,-0.0038,-0.0016,-0.0011,0.0077,0.0112,0.0178,0.0185,0.0196,0.0217,0.0207,0.0261,0.0267,0.0273,0.0295,0.0304,0.0207,0.0207,0.0207,0.0207,0,-0.0171,-0.0182,-0.0184,-0.017,-0.0159,-0.016,-0.0119,-0.0097,-0.0071,-0.0033,0.0023,0.0077,0.0132,0.0153,0.0176,0.0238,0.0235,0.0247,0.0262,0.0278,0.03,0.0309,0.0206,0.0206,0.0206,0.0206,0,0,-0.0188,-0.0193,-0.0195,-0.0211,-0.018,-0.018,-0.0141,-0.0102,-0.0078,-0.002,0.0022,0.0097,0.0129,0.0162,0.0204,0.0259,0.0311,0.0269,0.0272,0.0291,0.0406,0.0369,0.0376,0.0333,0.0335,0.0336,0.0399,0,-0.0205,-0.0229,-0.0214,-0.0236,-0.025,-0.0213,-0.0184,-0.0139,-0.0089,-0.0035,0.0049,0.0098,0.0135,0.0156,0.0222,0.0288,0.0337,0.0291,0.0389,0.0391,0.0358,0.0386,0.0342,0.0406,0.0408,0.041,0.0411,0,-0.0213,-0.0238,-0.027,-0.0294,-0.0294,-0.0291,-0.0257,-0.0228,-0.0128,-0.0087,-0.0001,0.0065,0.0165,0.0181,0.0322,0.0289,0.0344,0.0396,0.04,0.038,0.0373,0.0393,0.0428,0.0426,0.0425,0.0424,0.0423,0,-0.0249,-0.0278,-0.0317,-0.0323,-0.0327,-0.0331,-0.0323,-0.0246,-0.0226,-0.0117,-0.0083,0.005,0.0109,0.0214,0.033,0.0325,0.0473,0.0478,0.0498,0.0495,0.0514,0.0508,0.057,0.057,0.057,0.057,0.057,0,-0.0276,-0.0311,-0.0347,-0.0373,-0.0416,-0.0392,-0.0405,-0.036,-0.0293,-0.026,-0.0122,-0.0055,0.0121,0.0234,0.0329,0.0441,0.0473,0.0506,0.0518,0.0503,0.0495,0.052,0.0513,0.0572,0.0572,0.0571,0.0571,0,-0.0306,-0.0326,-0.0386,-0.0424,-0.0439,-0.0472,-0.0489,-0.0487,-0.0408,-0.0356,-0.0324,-0.0133,0.0026,0.0187,0.0365,0.0426,0.054,0.0566,0.0525,0.0532,0.0524,0.0516,0.0596,0.0595,0.0595,0.0594,0.0594,0,-0.0325,-0.0358,-0.0438,-0.0486,-0.0512,-0.056,-0.0586,-0.0549,-0.0536,-0.0399,-0.037,-0.0192,-0.0057,0.0185,0.0341,0.052,0.0539,0.0578,0.0571,0.0527,0.0531,0.0524,0.0516,0.0593,0.0593,0.0593,0.0593,0,-0.0369,-0.0398,-0.045,-0.0546,-0.0606,-0.067,-0.0698,-0.0697,-0.0628,-0.0562,-0.0384,-0.0215,-0.0031,0.0182,0.0322,0.0448,0.0547,0.0574,0.0576,0.0569,0.0525,0.0528,0.0521,0.0591,0.0592,0.0592,0.0592,0,-0.0401,-0.045,-0.0521,-0.06,-0.0681,-0.0742,-0.076,-0.0723,-0.0695,-0.0528,-0.0472,-0.0229,-0.0073,0.0143,0.0272,0.0396,0.0421,0.044,0.0449,0.0452,0.0392,0.0314,0.0334,0,0,0,0,0,-0.043,-0.0485,-0.0569,-0.0663,-0.0742,-0.0779,-0.0811,-0.0807,-0.0738,-0.0623,-0.054,-0.0355,-0.0089,0.0052,0.017,0.0221,0.0403,0.0356,0.0418,0.0582,0.0584,0.0534,0,0,0,0,0,0,-0.0454,-0.0531,-0.0574,-0.0689,-0.0751,-0.0835,-0.0853,-0.0814,-0.0732,-0.0625,-0.0468,-0.0351,-0.0088,-0.0147,0.0173,0.0214,0.0259,0.0497,0.0499,0.0581,0.0583,0.0584,0.0534,0,0,0,0,0]}]]